MXA371 MMMX-MMUN

Flight info

Callsign MXA371
Flight time 1h 57m
Altitude 35000
Route NOXOS3A NOXOS UT155 AVALI UT61 VER UJ24 GOTAS UT65 PAULE PAULE2G
Aircraft A320/M-SDE3FGHIRWY/LB1

Departure

Time 2026-05-06 21:14
Airport Mexico City Benito Juárez International Airport (MMMX)

Arrival

Time 2026-05-06 23:11
Airport Cancún International Airport (MMUN)
Time Latitude Longitude Altitude Speed Heading
2026-05-06 21:06 19.43267 -99.08583 7330 ft 0 kts 320°
2026-05-06 21:09 19.43266 -99.08582 7330 ft 1 kts 320°
2026-05-06 21:09 19.43253 -99.08570 7330 ft 3 kts 319°
2026-05-06 21:09 19.43238 -99.08555 7330 ft 3 kts 315°
2026-05-06 21:10 19.43223 -99.08540 7330 ft 3 kts 310°
2026-05-06 21:10 19.43211 -99.08523 7330 ft 3 kts 299°
2026-05-06 21:10 19.43204 -99.08505 7330 ft 3 kts 265°
2026-05-06 21:10 19.43207 -99.08493 7330 ft 1 kts 238°
2026-05-06 21:11 19.43208 -99.08490 7330 ft 0 kts 238°
2026-05-06 21:11 19.43208 -99.08491 7330 ft 1 kts 238°
2026-05-06 21:12 19.43190 -99.08522 7330 ft 13 kts 240°
2026-05-06 21:12 19.43117 -99.08635 7330 ft 16 kts 191°
2026-05-06 21:12 19.43030 -99.08590 7330 ft 6 kts 136°
2026-05-06 21:12 19.43038 -99.08549 7330 ft 7 kts 67°
2026-05-06 21:13 19.43095 -99.08443 7330 ft 41 kts 60°
2026-05-06 21:13 19.43372 -99.07958 7330 ft 110 kts 59°
2026-05-06 21:13 19.43859 -99.07085 7331 ft 164 kts 59°
2026-05-06 21:13 19.44472 -99.05976 7699 ft 175 kts 60°
2026-05-06 21:14 19.45092 -99.04808 8130 ft 192 kts 61°
2026-05-06 21:14 19.45805 -99.03483 8398 ft 222 kts 59°
2026-05-06 21:14 19.46651 -99.02007 8669 ft 252 kts 58°
2026-05-06 21:14 19.47606 -99.00379 9045 ft 268 kts 58°
2026-05-06 21:15 19.48606 -98.98644 9441 ft 282 kts 59°
2026-05-06 21:15 19.49636 -98.96824 9884 ft 293 kts 59°
2026-05-06 21:15 19.50684 -98.94946 10488 ft 297 kts 59°
2026-05-06 21:15 19.51738 -98.93054 11117 ft 299 kts 59°
2026-05-06 21:16 19.52803 -98.91141 11729 ft 302 kts 59°
2026-05-06 21:16 19.53648 -98.89083 12284 ft 308 kts 70°
2026-05-06 21:16 19.54260 -98.86909 12788 ft 314 kts 73°
2026-05-06 21:16 19.54817 -98.84644 13265 ft 321 kts 74°
2026-05-06 21:17 19.55375 -98.82331 13726 ft 327 kts 74°
2026-05-06 21:17 19.55966 -98.79979 14195 ft 332 kts 73°
2026-05-06 21:17 19.56588 -98.77605 14708 ft 335 kts 73°
2026-05-06 21:17 19.57227 -98.75209 15223 ft 338 kts 73°
2026-05-06 21:18 19.57840 -98.72789 15725 ft 342 kts 76°
2026-05-06 21:18 19.58327 -98.70294 16067 ft 351 kts 78°
2026-05-06 21:18 19.58774 -98.67702 16247 ft 364 kts 79°
2026-05-06 21:18 19.59218 -98.64998 16421 ft 378 kts 79°
2026-05-06 21:19 19.59684 -98.62205 16592 ft 390 kts 79°
2026-05-06 21:19 19.60179 -98.59337 16754 ft 402 kts 79°
2026-05-06 21:19 19.60698 -98.56401 16910 ft 414 kts 79°
2026-05-06 21:19 19.61235 -98.53357 17063 ft 424 kts 79°
2026-05-06 21:20 19.61573 -98.50205 17200 ft 435 kts 88°
2026-05-06 21:20 19.61581 -98.48061 17302 ft 441 kts 90°
2026-05-06 21:20 19.61459 -98.43661 17485 ft 453 kts 92°
2026-05-06 21:20 19.61319 -98.40291 17611 ft 461 kts 92°
2026-05-06 21:21 19.61194 -98.36867 17773 ft 467 kts 92°
2026-05-06 21:21 19.61099 -98.33412 18054 ft 470 kts 91°
2026-05-06 21:21 19.61026 -98.29933 18352 ft 473 kts 91°
2026-05-06 21:21 19.60951 -98.26439 18654 ft 475 kts 91°
2026-05-06 21:22 19.60862 -98.22970 18940 ft 477 kts 91°
2026-05-06 21:22 19.60760 -98.19452 19229 ft 479 kts 92°
2026-05-06 21:22 19.60650 -98.15919 19512 ft 481 kts 92°
2026-05-06 21:22 19.60545 -98.12370 19786 ft 483 kts 92°
2026-05-06 21:23 19.60446 -98.08794 20063 ft 485 kts 91°
2026-05-06 21:23 19.60356 -98.05211 20327 ft 487 kts 91°
2026-05-06 21:23 19.60565 -98.01625 20580 ft 488 kts 81°
2026-05-06 21:23 19.61432 -97.98128 20822 ft 489 kts 68°
2026-05-06 21:24 19.62866 -97.94851 21086 ft 490 kts 62°
2026-05-06 21:24 19.64428 -97.91686 21319 ft 491 kts 60°
2026-05-06 21:24 19.65519 -97.89528 21482 ft 493 kts 60°
2026-05-06 21:24 19.67634 -97.85253 21798 ft 495 kts 62°
2026-05-06 21:25 19.68679 -97.83045 21959 ft 496 kts 62°
2026-05-06 21:25 19.70687 -97.78662 22264 ft 499 kts 63°
2026-05-06 21:25 19.72203 -97.75346 22486 ft 500 kts 63°
2026-05-06 21:25 19.73223 -97.73149 22632 ft 501 kts 62°
2026-05-06 21:26 19.74790 -97.69831 22850 ft 503 kts 62°
2026-05-06 21:26 19.76376 -97.66507 23057 ft 505 kts 62°
2026-05-06 21:26 19.78496 -97.62035 23333 ft 507 kts 62°
2026-05-06 21:26 19.79536 -97.59814 23463 ft 508 kts 62°
2026-05-06 21:27 19.81104 -97.56442 23656 ft 509 kts 62°
2026-05-06 21:27 19.82675 -97.53064 23839 ft 511 kts 62°
2026-05-06 21:27 19.84241 -97.49713 24014 ft 512 kts 62°
2026-05-06 21:27 19.85831 -97.46326 24185 ft 513 kts 62°
2026-05-06 21:28 19.87428 -97.42924 24347 ft 515 kts 62°
2026-05-06 21:28 19.89025 -97.39512 24506 ft 516 kts 62°
2026-05-06 21:28 19.90622 -97.36084 24658 ft 517 kts 62°
2026-05-06 21:28 19.92223 -97.32645 24818 ft 518 kts 62°
2026-05-06 21:29 19.93826 -97.29204 25027 ft 517 kts 62°
2026-05-06 21:29 19.95404 -97.25819 25219 ft 517 kts 62°
2026-05-06 21:29 19.97001 -97.22389 25413 ft 517 kts 62°
2026-05-06 21:29 19.98596 -97.18963 25611 ft 517 kts 62°
2026-05-06 21:30 20.00189 -97.15537 25805 ft 516 kts 62°
2026-05-06 21:30 20.01783 -97.12106 26010 ft 516 kts 62°
2026-05-06 21:30 20.03372 -97.08684 26210 ft 516 kts 62°
2026-05-06 21:30 20.04939 -97.05308 26411 ft 515 kts 62°
2026-05-06 21:31 20.06525 -97.01891 26623 ft 515 kts 62°
2026-05-06 21:31 20.08112 -96.98468 26832 ft 515 kts 62°
2026-05-06 21:31 20.09694 -96.95051 27052 ft 514 kts 62°
2026-05-06 21:31 20.11272 -96.91640 27267 ft 514 kts 62°
2026-05-06 21:32 20.12714 -96.88156 27471 ft 515 kts 70°
2026-05-06 21:32 20.13634 -96.80644 27863 ft 515 kts 96°
2026-05-06 21:32 20.12885 -96.76916 28064 ft 514 kts 109°
2026-05-06 21:33 20.11396 -96.73478 28262 ft 511 kts 122°
2026-05-06 21:33 20.09311 -96.70507 28454 ft 507 kts 134°
2026-05-06 21:33 20.06681 -96.68029 28650 ft 503 kts 147°
2026-05-06 21:33 20.03674 -96.66162 28845 ft 499 kts 156°
2026-05-06 21:34 20.00547 -96.64540 29055 ft 498 kts 157°
2026-05-06 21:34 19.97406 -96.62957 29272 ft 498 kts 157°
2026-05-06 21:34 19.94275 -96.61354 29490 ft 498 kts 156°
2026-05-06 21:34 19.91180 -96.59713 29710 ft 498 kts 155°
2026-05-06 21:35 19.88128 -96.58056 29924 ft 497 kts 155°
2026-05-06 21:35 19.85044 -96.56372 30137 ft 497 kts 155°
2026-05-06 21:35 19.81954 -96.54709 30336 ft 496 kts 156°
2026-05-06 21:35 19.78848 -96.53066 30539 ft 496 kts 156°
2026-05-06 21:36 19.75789 -96.51463 30734 ft 495 kts 156°
2026-05-06 21:36 19.72699 -96.49837 30929 ft 495 kts 156°
2026-05-06 21:36 19.69610 -96.48201 31146 ft 495 kts 156°
2026-05-06 21:36 19.66541 -96.46568 31365 ft 494 kts 156°
2026-05-06 21:37 19.63462 -96.44928 31582 ft 494 kts 156°
2026-05-06 21:37 19.60395 -96.43293 31793 ft 493 kts 156°
2026-05-06 21:37 19.57321 -96.41661 32000 ft 493 kts 156°
2026-05-06 21:37 19.54254 -96.40040 32206 ft 492 kts 156°
2026-05-06 21:38 19.51185 -96.38421 32414 ft 492 kts 156°
2026-05-06 21:38 19.48107 -96.36799 32620 ft 492 kts 156°
2026-05-06 21:38 19.45048 -96.35182 32815 ft 491 kts 156°
2026-05-06 21:38 19.42023 -96.33580 33002 ft 491 kts 156°
2026-05-06 21:39 19.38970 -96.31959 33190 ft 491 kts 156°
2026-05-06 21:39 19.35922 -96.30341 33378 ft 490 kts 156°
2026-05-06 21:39 19.32869 -96.28727 33560 ft 490 kts 156°
2026-05-06 21:39 19.29815 -96.27121 33727 ft 489 kts 156°
2026-05-06 21:40 19.26766 -96.25518 33888 ft 489 kts 156°
2026-05-06 21:40 19.23728 -96.23892 34065 ft 490 kts 154°
2026-05-06 21:40 19.20877 -96.21881 34189 ft 493 kts 142°
2026-05-06 21:40 19.18520 -96.19303 34272 ft 497 kts 128°
2026-05-06 21:41 19.16785 -96.16131 34343 ft 501 kts 112°
2026-05-06 21:41 19.15926 -96.12564 34428 ft 502 kts 97°
2026-05-06 21:41 19.15799 -96.08873 34518 ft 502 kts 86°
2026-05-06 21:41 19.16206 -96.05208 34634 ft 502 kts 81°
2026-05-06 21:42 19.16705 -96.01542 34777 ft 501 kts 81°
2026-05-06 21:42 19.17191 -95.97893 34919 ft 501 kts 82°
2026-05-06 21:42 19.18166 -95.90596 35007 ft 500 kts 81°
2026-05-06 21:43 19.19155 -95.83351 35007 ft 500 kts 81°
2026-05-06 21:43 19.20138 -95.76053 35007 ft 500 kts 81°
2026-05-06 21:44 19.21112 -95.68762 35007 ft 500 kts 81°
2026-05-06 21:44 19.22100 -95.61454 35010 ft 500 kts 81°
2026-05-06 21:45 19.23071 -95.54193 35005 ft 500 kts 82°
2026-05-06 21:45 19.24039 -95.46901 34998 ft 500 kts 81°
2026-05-06 21:46 19.25009 -95.39600 34988 ft 501 kts 82°
2026-05-06 21:46 19.25981 -95.32299 34981 ft 500 kts 81°
2026-05-06 21:47 19.26946 -95.24982 34972 ft 501 kts 82°
2026-05-06 21:47 19.27901 -95.17727 34968 ft 501 kts 82°
2026-05-06 21:48 19.28859 -95.10417 34968 ft 501 kts 82°
2026-05-06 21:48 19.29441 -95.03077 34955 ft 500 kts 90°
2026-05-06 21:49 19.29241 -94.95703 34955 ft 501 kts 92°
2026-05-06 21:49 19.28961 -94.88385 34962 ft 501 kts 92°
2026-05-06 21:50 19.28787 -94.81003 34992 ft 501 kts 91°
2026-05-06 21:50 19.28605 -94.73630 35003 ft 501 kts 92°
2026-05-06 21:51 19.28376 -94.66247 35017 ft 501 kts 92°
2026-05-06 21:51 19.28163 -94.58915 35030 ft 501 kts 92°
2026-05-06 21:52 19.27953 -94.51539 35040 ft 501 kts 92°
2026-05-06 21:52 19.27733 -94.44150 35041 ft 501 kts 92°
2026-05-06 21:53 19.27509 -94.36818 35040 ft 501 kts 92°
2026-05-06 21:53 19.27283 -94.29441 35040 ft 501 kts 92°
2026-05-06 21:54 19.27062 -94.22104 35040 ft 501 kts 92°
2026-05-06 21:54 19.26831 -94.14736 35041 ft 501 kts 92°
2026-05-06 21:55 19.26594 -94.07350 35040 ft 501 kts 92°
2026-05-06 21:55 19.26362 -94.00024 35040 ft 501 kts 92°
2026-05-06 21:56 19.26123 -93.92639 35040 ft 501 kts 92°
2026-05-06 21:56 19.25880 -93.85258 35040 ft 501 kts 92°
2026-05-06 21:57 19.25636 -93.77886 35040 ft 501 kts 92°
2026-05-06 21:57 19.25389 -93.70561 35041 ft 501 kts 92°
2026-05-06 21:58 19.25138 -93.63188 35042 ft 501 kts 92°
2026-05-06 21:58 19.24885 -93.55811 35044 ft 501 kts 92°
2026-05-06 21:59 19.24626 -93.48440 35042 ft 501 kts 92°
2026-05-06 21:59 19.24370 -93.41112 35040 ft 501 kts 92°
2026-05-06 22:00 19.24106 -93.33733 35040 ft 501 kts 92°
2026-05-06 22:00 19.23838 -93.26349 35040 ft 501 kts 92°
2026-05-06 22:01 19.23571 -93.19015 35042 ft 501 kts 92°
2026-05-06 22:01 19.23300 -93.11650 35043 ft 501 kts 92°
2026-05-06 22:02 19.23025 -93.04279 35043 ft 501 kts 92°
2026-05-06 22:02 19.22767 -92.97343 35039 ft 501 kts 92°
2026-05-06 22:03 19.22481 -92.89894 35007 ft 501 kts 92°
2026-05-06 22:03 19.22198 -92.82519 34966 ft 501 kts 92°
2026-05-06 22:04 19.21912 -92.75156 34953 ft 501 kts 92°
2026-05-06 22:04 19.21719 -92.67837 34957 ft 500 kts 89°
2026-05-06 22:05 19.21882 -92.60467 34954 ft 501 kts 88°
2026-05-06 22:05 19.22087 -92.53099 34973 ft 501 kts 88°
2026-05-06 22:06 19.22255 -92.45716 34982 ft 501 kts 89°
2026-05-06 22:06 19.22414 -92.38341 34982 ft 501 kts 88°
2026-05-06 22:07 19.22587 -92.30970 34980 ft 501 kts 88°
2026-05-06 22:07 19.22748 -92.23642 34978 ft 501 kts 89°
2026-05-06 22:08 19.22903 -92.16275 34972 ft 501 kts 88°
2026-05-06 22:08 19.23065 -92.08881 34966 ft 501 kts 88°
2026-05-06 22:09 19.23223 -92.01517 34962 ft 501 kts 89°
2026-05-06 22:09 19.23368 -91.94147 34959 ft 501 kts 89°
2026-05-06 22:10 19.23515 -91.86777 34957 ft 501 kts 89°
2026-05-06 22:10 19.23642 -91.80634 34957 ft 501 kts 89°
2026-05-06 22:11 19.23803 -91.72064 34954 ft 501 kts 89°
2026-05-06 22:11 19.23945 -91.64688 34953 ft 501 kts 89°
2026-05-06 22:12 19.24059 -91.58551 34955 ft 501 kts 89°
2026-05-06 22:12 19.24188 -91.51177 34954 ft 501 kts 89°
2026-05-06 22:13 19.24323 -91.43815 34952 ft 501 kts 89°
2026-05-06 22:13 19.24456 -91.36427 34954 ft 501 kts 89°
2026-05-06 22:14 19.24574 -91.29060 34952 ft 501 kts 89°
2026-05-06 22:14 19.24699 -91.21675 34953 ft 501 kts 89°
2026-05-06 22:15 19.24819 -91.14349 34955 ft 501 kts 89°
2026-05-06 22:15 19.24933 -91.06971 34954 ft 501 kts 89°
2026-05-06 22:16 19.25050 -90.99586 34952 ft 501 kts 89°
2026-05-06 22:16 19.25162 -90.92243 34955 ft 501 kts 89°
2026-05-06 22:17 19.25268 -90.84854 34955 ft 501 kts 89°
2026-05-06 22:17 19.25374 -90.77478 34956 ft 501 kts 89°
2026-05-06 22:18 19.25476 -90.70155 34958 ft 501 kts 89°
2026-05-06 22:18 19.25574 -90.62767 34955 ft 501 kts 89°
2026-05-06 22:19 19.25671 -90.55389 34954 ft 501 kts 89°
2026-05-06 22:19 19.25763 -90.48002 34953 ft 501 kts 89°
2026-05-06 22:20 19.25856 -90.40623 34955 ft 501 kts 89°
2026-05-06 22:20 19.25926 -90.33296 34955 ft 501 kts 90°
2026-05-06 22:21 19.25791 -90.25923 34957 ft 501 kts 91°
2026-05-06 22:21 19.25622 -90.18540 34952 ft 501 kts 91°
2026-05-06 22:22 19.25463 -90.11155 34952 ft 501 kts 91°
2026-05-06 22:22 19.25309 -90.03813 34953 ft 501 kts 91°
2026-05-06 22:23 19.25143 -89.96445 34956 ft 501 kts 91°
2026-05-06 22:23 19.24974 -89.89066 34956 ft 501 kts 91°
2026-05-06 22:24 19.24804 -89.81688 34958 ft 501 kts 91°
2026-05-06 22:24 19.24630 -89.74310 34957 ft 501 kts 91°
2026-05-06 22:25 19.24458 -89.66986 34954 ft 501 kts 91°
2026-05-06 22:25 19.24279 -89.59606 34953 ft 501 kts 91°
2026-05-06 22:26 19.24350 -89.52243 34954 ft 500 kts 82°
2026-05-06 22:26 19.26049 -89.45136 34953 ft 499 kts 72°
2026-05-06 22:27 19.28145 -89.38113 34960 ft 500 kts 72°
2026-05-06 22:27 19.30112 -89.31053 35011 ft 500 kts 73°
2026-05-06 22:28 19.32009 -89.23958 35042 ft 500 kts 73°
2026-05-06 22:28 19.33961 -89.16931 35043 ft 501 kts 72°
2026-05-06 22:29 19.35923 -89.09867 34887 ft 497 kts 73°
2026-05-06 22:29 19.36886 -89.06347 34450 ft 496 kts 73°
2026-05-06 22:29 19.37843 -89.02842 33776 ft 496 kts 73°
2026-05-06 22:30 19.38813 -88.99309 32799 ft 501 kts 73°
2026-05-06 22:30 19.39793 -88.95747 31918 ft 505 kts 73°
2026-05-06 22:30 19.40775 -88.92172 31071 ft 506 kts 73°
2026-05-06 22:30 19.41746 -88.88631 30192 ft 508 kts 73°
2026-05-06 22:31 19.42732 -88.85031 29282 ft 509 kts 73°
2026-05-06 22:31 19.43720 -88.81426 28344 ft 511 kts 73°
2026-05-06 22:31 19.44712 -88.77804 27365 ft 513 kts 73°
2026-05-06 22:31 19.45708 -88.74160 26348 ft 515 kts 73°
2026-05-06 22:32 19.46701 -88.70514 25302 ft 516 kts 73°
2026-05-06 22:32 19.47700 -88.66853 24214 ft 518 kts 73°
2026-05-06 22:32 19.48700 -88.63185 23350 ft 514 kts 73°
2026-05-06 22:32 19.49685 -88.59560 22662 ft 506 kts 73°
2026-05-06 22:33 19.50654 -88.56005 21907 ft 499 kts 73°
2026-05-06 22:33 19.51613 -88.52486 21125 ft 493 kts 73°
2026-05-06 22:33 19.52557 -88.49016 20495 ft 488 kts 73°
2026-05-06 22:33 19.53483 -88.45602 20158 ft 486 kts 73°
2026-05-06 22:34 19.54417 -88.42154 20031 ft 485 kts 73°
2026-05-06 22:34 19.55347 -88.38724 20015 ft 485 kts 73°
2026-05-06 22:34 19.56276 -88.35292 20010 ft 485 kts 73°
2026-05-06 22:34 19.57205 -88.31858 20007 ft 485 kts 73°
2026-05-06 22:35 19.58135 -88.28418 20006 ft 485 kts 73°
2026-05-06 22:35 19.59066 -88.24975 20004 ft 485 kts 73°
2026-05-06 22:35 19.59982 -88.21584 20004 ft 485 kts 73°
2026-05-06 22:35 19.60920 -88.18103 20003 ft 484 kts 73°
2026-05-06 22:36 19.61846 -88.14659 20003 ft 485 kts 73°
2026-05-06 22:36 19.62759 -88.11268 20003 ft 485 kts 73°
2026-05-06 22:36 19.63684 -88.07836 20003 ft 485 kts 73°
2026-05-06 22:36 19.64610 -88.04393 20003 ft 485 kts 73°
2026-05-06 22:37 19.65528 -88.00977 20003 ft 485 kts 73°
2026-05-06 22:37 19.66452 -87.97531 19893 ft 479 kts 73°
2026-05-06 22:37 19.67356 -87.94157 19420 ft 472 kts 73°
2026-05-06 22:37 19.68254 -87.90803 19066 ft 476 kts 73°
2026-05-06 22:38 19.69159 -87.87414 19008 ft 478 kts 73°
2026-05-06 22:38 19.70070 -87.84013 19005 ft 478 kts 73°
2026-05-06 22:38 19.70978 -87.80625 19004 ft 478 kts 73°
2026-05-06 22:38 19.71874 -87.77273 19003 ft 478 kts 73°
2026-05-06 22:39 19.72780 -87.73873 19003 ft 478 kts 73°
2026-05-06 22:39 19.73686 -87.70471 19002 ft 478 kts 73°
2026-05-06 22:39 19.74589 -87.67081 19002 ft 478 kts 73°
2026-05-06 22:39 19.75492 -87.63689 19002 ft 478 kts 73°
2026-05-06 22:40 19.76392 -87.60302 19002 ft 478 kts 73°
2026-05-06 22:40 19.77294 -87.56909 19002 ft 478 kts 73°
2026-05-06 22:40 19.78199 -87.53505 19002 ft 478 kts 73°
2026-05-06 22:40 19.79106 -87.50089 19002 ft 478 kts 73°
2026-05-06 22:41 19.80917 -87.43347 18999 ft 477 kts 71°
2026-05-06 22:41 19.82209 -87.40100 18994 ft 476 kts 60°
2026-05-06 22:41 19.83998 -87.37155 19004 ft 473 kts 53°
2026-05-06 22:42 19.85935 -87.34377 18907 ft 461 kts 51°
2026-05-06 22:42 19.87843 -87.31747 18702 ft 445 kts 50°
2026-05-06 22:42 19.89713 -87.29152 18501 ft 429 kts 51°
2026-05-06 22:42 19.91462 -87.26647 18316 ft 415 kts 52°
2026-05-06 22:43 19.93104 -87.24234 18149 ft 401 kts 52°
2026-05-06 22:43 19.94702 -87.21867 17994 ft 387 kts 52°
2026-05-06 22:43 19.96259 -87.19588 17849 ft 375 kts 52°
2026-05-06 22:43 19.97780 -87.17388 17709 ft 363 kts 51°
2026-05-06 22:44 19.99257 -87.15261 17576 ft 352 kts 51°
2026-05-06 22:44 20.00686 -87.13198 17451 ft 341 kts 51°
2026-05-06 22:44 20.02067 -87.11193 17336 ft 331 kts 51°
2026-05-06 22:44 20.03406 -87.09245 17163 ft 323 kts 51°
2026-05-06 22:45 20.04727 -87.07323 16857 ft 320 kts 51°
2026-05-06 22:45 20.06039 -87.05419 16531 ft 319 kts 51°
2026-05-06 22:45 20.07330 -87.03544 16205 ft 317 kts 51°
2026-05-06 22:45 20.08629 -87.01656 15875 ft 315 kts 51°
2026-05-06 22:46 20.09920 -86.99775 15546 ft 314 kts 51°
2026-05-06 22:46 20.11204 -86.97905 15218 ft 312 kts 51°
2026-05-06 22:46 20.12485 -86.96041 14891 ft 311 kts 51°
2026-05-06 22:46 20.13756 -86.94193 14565 ft 309 kts 51°
2026-05-06 22:47 20.15021 -86.92350 14240 ft 307 kts 51°
2026-05-06 22:47 20.16279 -86.90514 13915 ft 306 kts 51°
2026-05-06 22:47 20.17530 -86.88689 13598 ft 304 kts 51°
2026-05-06 22:47 20.18770 -86.86880 13294 ft 302 kts 51°
2026-05-06 22:48 20.20008 -86.85077 12992 ft 299 kts 51°
2026-05-06 22:48 20.21231 -86.83293 12691 ft 297 kts 51°
2026-05-06 22:48 20.22444 -86.81523 12392 ft 295 kts 51°
2026-05-06 22:48 20.23638 -86.79791 12096 ft 292 kts 51°
2026-05-06 22:49 20.24842 -86.78059 11798 ft 290 kts 51°
2026-05-06 22:49 20.26039 -86.76335 11500 ft 288 kts 51°
2026-05-06 22:49 20.27227 -86.74620 11201 ft 286 kts 51°
2026-05-06 22:49 20.28401 -86.72921 10904 ft 284 kts 51°
2026-05-06 22:50 20.29568 -86.71232 10607 ft 282 kts 51°
2026-05-06 22:50 20.30712 -86.69576 10314 ft 280 kts 51°
2026-05-06 22:50 20.31925 -86.67943 10028 ft 275 kts 41°
2026-05-06 22:50 20.33489 -86.66834 9980 ft 270 kts 18°
2026-05-06 22:51 20.35318 -86.66525 9988 ft 265 kts 353°
2026-05-06 22:51 20.37078 -86.66970 10001 ft 263 kts 338°
2026-05-06 22:51 20.38780 -86.67694 10003 ft 262 kts 336°
2026-05-06 22:51 20.40474 -86.68417 10002 ft 263 kts 337°
2026-05-06 22:52 20.42190 -86.69080 10001 ft 263 kts 339°
2026-05-06 22:52 20.43927 -86.69705 10000 ft 263 kts 340°
2026-05-06 22:52 20.45656 -86.70335 10000 ft 263 kts 339°
2026-05-06 22:52 20.47381 -86.70986 9999 ft 263 kts 339°
2026-05-06 22:53 20.49110 -86.71645 9999 ft 263 kts 339°
2026-05-06 22:53 20.50833 -86.72295 9999 ft 263 kts 339°
2026-05-06 22:53 20.52539 -86.72936 9999 ft 263 kts 339°
2026-05-06 22:53 20.54261 -86.73581 9912 ft 261 kts 339°
2026-05-06 22:54 20.55967 -86.74223 9611 ft 260 kts 339°
2026-05-06 22:54 20.57670 -86.74865 9281 ft 259 kts 339°
2026-05-06 22:54 20.59373 -86.75507 8962 ft 259 kts 339°
2026-05-06 22:54 20.61069 -86.76145 8648 ft 258 kts 339°
2026-05-06 22:55 20.62764 -86.76784 8334 ft 257 kts 340°
2026-05-06 22:55 20.64423 -86.77410 8026 ft 256 kts 340°
2026-05-06 22:55 20.66103 -86.78042 7714 ft 255 kts 340°
2026-05-06 22:55 20.67778 -86.78672 7400 ft 254 kts 340°
2026-05-06 22:56 20.69451 -86.79305 7084 ft 253 kts 340°
2026-05-06 22:56 20.71114 -86.79932 6768 ft 253 kts 340°
2026-05-06 22:56 20.72752 -86.80548 6455 ft 252 kts 340°
2026-05-06 22:56 20.74422 -86.81178 6135 ft 251 kts 340°
2026-05-06 22:57 20.76049 -86.81795 5994 ft 252 kts 340°
2026-05-06 22:57 20.77701 -86.82419 5993 ft 252 kts 340°
2026-05-06 22:57 20.79351 -86.83039 5995 ft 252 kts 340°
2026-05-06 22:57 20.81004 -86.83664 5996 ft 252 kts 340°
2026-05-06 22:58 20.82657 -86.84290 5997 ft 252 kts 340°
2026-05-06 22:58 20.84311 -86.84915 5997 ft 252 kts 340°
2026-05-06 22:58 20.85964 -86.85540 5998 ft 252 kts 340°
2026-05-06 22:58 20.87621 -86.86166 5998 ft 252 kts 340°
2026-05-06 22:59 20.89273 -86.86790 5998 ft 252 kts 340°
2026-05-06 22:59 20.90371 -86.87198 5998 ft 252 kts 341°
2026-05-06 22:59 20.92578 -86.87998 5997 ft 252 kts 338°
2026-05-06 22:59 20.93620 -86.88594 5985 ft 252 kts 322°
2026-05-06 23:00 20.94747 -86.89993 5998 ft 253 kts 303°
2026-05-06 23:00 20.95642 -86.91606 6003 ft 253 kts 301°
2026-05-06 23:00 20.96536 -86.93209 5926 ft 251 kts 303°
2026-05-06 23:00 20.97515 -86.94779 5617 ft 250 kts 305°
2026-05-06 23:01 20.98513 -86.96305 5283 ft 251 kts 305°
2026-05-06 23:01 20.99493 -86.97851 4960 ft 250 kts 304°
2026-05-06 23:01 21.00445 -86.99405 4642 ft 250 kts 303°
2026-05-06 23:01 21.01404 -87.00955 4343 ft 248 kts 304°
2026-05-06 23:02 21.02351 -87.02456 4216 ft 239 kts 304°
2026-05-06 23:02 21.03257 -87.03900 4020 ft 228 kts 304°
2026-05-06 23:02 21.04102 -87.05261 3908 ft 214 kts 304°
2026-05-06 23:02 21.04905 -87.06548 3714 ft 203 kts 304°
2026-05-06 23:03 21.05661 -87.07754 3595 ft 187 kts 304°
2026-05-06 23:03 21.06357 -87.08866 3466 ft 173 kts 304°
2026-05-06 23:03 21.07014 -87.09919 3254 ft 168 kts 303°
2026-05-06 23:03 21.07661 -87.10955 3015 ft 167 kts 303°
2026-05-06 23:04 21.08304 -87.11984 2764 ft 166 kts 303°
2026-05-06 23:04 21.08944 -87.13013 2514 ft 165 kts 303°
2026-05-06 23:04 21.09584 -87.14019 2264 ft 165 kts 308°
2026-05-06 23:04 21.10531 -87.14659 2006 ft 164 kts 351°
2026-05-06 23:05 21.11637 -87.14454 1992 ft 165 kts 30°
2026-05-06 23:05 21.12370 -87.13537 1994 ft 165 kts 69°
2026-05-06 23:05 21.12452 -87.12322 2010 ft 165 kts 97°
2026-05-06 23:05 21.12281 -87.11109 2011 ft 164 kts 98°
2026-05-06 23:06 21.12140 -87.09894 2042 ft 165 kts 96°
2026-05-06 23:06 21.12039 -87.08669 2023 ft 165 kts 95°
2026-05-06 23:06 21.11940 -87.07450 2013 ft 165 kts 95°
2026-05-06 23:06 21.11834 -87.06227 2007 ft 165 kts 95°
2026-05-06 23:07 21.11731 -87.05021 2003 ft 165 kts 95°
2026-05-06 23:07 21.11625 -87.03787 2001 ft 165 kts 95°
2026-05-06 23:07 21.11521 -87.02581 1999 ft 165 kts 95°
2026-05-06 23:07 21.11417 -87.01358 1998 ft 165 kts 95°
2026-05-06 23:08 21.11254 -87.00146 1989 ft 165 kts 107°
2026-05-06 23:08 21.10734 -86.99050 1955 ft 165 kts 121°
2026-05-06 23:08 21.10118 -86.98021 1832 ft 164 kts 123°
2026-05-06 23:08 21.09484 -86.97007 1716 ft 164 kts 124°
2026-05-06 23:09 21.08846 -86.95991 1542 ft 163 kts 124°
2026-05-06 23:09 21.08215 -86.94985 1335 ft 163 kts 124°
2026-05-06 23:09 21.07587 -86.93982 1120 ft 162 kts 124°
2026-05-06 23:09 21.06957 -86.92977 905 ft 162 kts 124°
2026-05-06 23:10 21.06334 -86.91983 691 ft 161 kts 124°
2026-05-06 23:10 21.05710 -86.90988 478 ft 161 kts 124°
2026-05-06 23:10 21.05089 -86.89997 265 ft 160 kts 124°
2026-05-06 23:10 21.04470 -86.89010 57 ft 160 kts 124°
2026-05-06 23:11 21.03894 -86.88089 34 ft 126 kts 122°
2026-05-06 23:11 21.03574 -86.87583 34 ft 39 kts 121°
2026-05-06 23:11 21.03474 -86.87419 34 ft 12 kts 118°
2026-05-06 23:11 21.03518 -86.87369 34 ft 12 kts 358°
2026-05-06 23:12 21.03600 -86.87372 34 ft 13 kts 31°
2026-05-06 23:12 21.03653 -86.87329 34 ft 9 kts 37°
2026-05-06 23:12 21.03698 -86.87325 34 ft 7 kts 308°
2026-05-06 23:12 21.03731 -86.87379 34 ft 10 kts 303°
2026-05-06 23:13 21.03768 -86.87439 34 ft 10 kts 304°
2026-05-06 23:13 21.03802 -86.87491 34 ft 7 kts 304°
2026-05-06 23:13 21.03839 -86.87530 34 ft 8 kts 343°
2026-05-06 23:13 21.03900 -86.87537 34 ft 10 kts 338°
2026-05-06 23:14 21.03927 -86.87550 34 ft 0 kts 335°
2026-05-06 23:14 21.03928 -86.87551 34 ft 0 kts 335°